BMCB-37 Weather Reports


time (UTC)temp
C
wind
direction
speed
KPH
gust
KPH
rain 1hr
cm
rain 24hr
cm
rain mn
cm
humidity
%
barometer
mb
20260503055019 13 0 0.0 0.0 0.00 0.05 0.00 97 1014.2
20260503054016 13 0 0.0 0.0 0.00 0.05 0.00 99 1014.2
20260503030019 12 0 0.0 0.0 0.00 0.05 0.00 10 1014.6
20260503022025 12 0 0.0 0.0 0.00 0.05 0.00 10 1014.6
20260503015231 12 0 0.0 0.0 0.00 0.05 0.00 10 1015.0
20260503012019 12 0 0.0 0.0 0.00 0.05 0.00 10 1015.2
20260503011033 12 0 0.0 0.0 0.00 0.05 0.00 10 1015.3
20260503010025 12 0 0.0 0.0 0.00 0.05 0.00 99 1015.4
20260503005037 12 0 0.0 0.0 0.00 0.05 0.00 99 1015.3
20260503003022 13 0 0.0 0.0 0.00 0.05 0.00 99 1015.4
20260503002019 13 0 0.0 0.0 0.00 0.05 0.00 98 1015.5
20260503000039 13 0 0.0 0.0 0.00 0.05 0.00 98 1015.7
20260502235038 13 0 0.0 0.0 0.00 0.05 0.00 98 1015.8
20260502233040 14 0 0.0 0.0 0.00 0.05 0.00 98 1015.9
20260502232021 14 0 0.0 0.0 0.00 0.05 0.00 98 1016.0
20260502231020 14 0 0.0 0.0 0.00 0.05 0.00 98 1016.0
20260502225022 14 0 0.0 0.0 0.00 0.05 0.00 98 1016.2
20260502223021 14 0 0.0 0.0 0.00 0.05 0.00 98 1016.3
20260502222021 14 0 0.0 0.0 0.00 0.05 0.00 98 1016.3
20260502221023 14 0 0.0 0.0 0.00 0.05 0.00 98 1016.4
20260502215033 15 0 0.0 0.0 0.00 0.05 0.05 97 1016.3
20260502214021 15 0 0.0 0.0 0.00 0.05 0.05 97 1016.4
20260502213039 15 0 0.0 0.0 0.00 0.05 0.05 96 1016.4
20260502212034 15 0 0.0 0.0 0.00 0.05 0.05 95 1016.4
20260502211036 15 0 0.0 0.0 0.00 0.05 0.05 94 1016.5
20260502210021 15 0 0.0 0.0 0.00 0.05 0.05 93 1016.5
20260502205039 15 0 0.0 0.0 0.00 0.05 0.05 95 1016.4
20260502202038 15 0 0.0 0.0 0.05 0.05 0.05 95 1016.4
20260502200036 16 0 0.0 0.0 0.05 0.05 0.05 92 1016.3
20260502195021 16 0 0.0 0.0 0.05 0.05 0.05 90 1016.4
20260502194038 17 0 0.0 0.0 0.05 0.05 0.05 84 1016.4
20260502193021 18 0 0.0 0.0 0.05 0.05 0.05 77 1016.4
20260502191034 19 0 0.0 0.0 0.00 0.00 0.00 69 1016.4
20260502190039 19 0 0.0 0.0 0.00 0.00 0.00 68 1016.4
20260502185021 20 0 0.0 0.0 0.00 0.00 0.00 69 1016.6
20260502181037 21 0 0.0 0.0 0.00 0.00 0.00 74 1016.2
20260502162021 23 0 0.0 0.0 0.00 0.00 0.00 54 1017.0
20260502161037 23 0 0.0 0.0 0.00 0.00 0.00 54 1017.1
20260502151026 23 0 0.0 0.0 0.00 0.00 0.00 53 1017.9
20260502123039 21 0 0.0 0.0 0.00 0.00 0.00 61 1020.3
20260502122038 21 0 0.0 0.0 0.00 0.00 0.00 61 1020.4
20260502114036 21 0 0.0 0.0 0.00 0.00 0.00 61 1020.8
20260502112020 22 0 0.0 0.0 0.00 0.00 0.00 62 1020.9
20260502111036 21 0 0.0 0.0 0.00 0.00 0.00 64 1020.9
20260502110020 21 0 0.0 0.0 0.00 0.00 0.00 63 1021.0
20260502104021 21 0 0.0 0.0 0.00 0.00 0.00 63 1021.2
20260502103020 22 0 0.0 0.0 0.00 0.00 0.00 63 1021.2
20260502102036 21 0 0.0 0.0 0.00 0.00 0.00 65 1021.2
20260502091039 20 0 0.0 0.0 0.00 0.00 0.00 66 1021.8
20260502071020 16 0 0.0 0.0 0.00 0.00 0.00 74 1022.5
20260502065038 15 0 0.0 0.0 0.00 0.00 0.00 78 1022.6
20260502062022 13 0 0.0 0.0 0.00 0.00 0.00 81 1022.6
20260502061034 13 0 0.0 0.0 0.00 0.00 0.00 81 1022.7